Location: Charbonni�res
(45.9952°N, 2.9982°E)
Time: 16:35:37
(UTC+00:00)

EO 1 Delta rocket - Pass Details

Date: 29 November 2020
Orbit: 698 x 1791 km, 95.4° (Epoch: 17 January)

Event Time Altitude Azimuth Distance (km) Brightness Sun altitude
Rises 05:39:23 0° 177° (S) 3,410 7.6 -14.8°
Reaches altitude 10° 05:41:54 10° 180° (S) 2,370 6.7 -14.4°
Maximum altitude 05:46:55 63° 262° (W) 809 3.9 -13.6°
Drops below altitude 10° 05:51:31 10° 344° (NNW) 2,172 6.0 -12.8°
Sets 05:53:45 0° 348° (NNW) 3,100 6.8 -12.4°
